This is the latest recevied weather packets stored in our database for station/object IZ8QAD-10. If no packets are shown the sender has not sent any weather packets the latest 10 day(s).
| Time | Temp. | Humidity | Pressure | Rain* | Wind** | Luminosity | Snow |
|---|---|---|---|---|---|---|---|
| 1777470709 | 28.89° C | 28% | 967.9 hPa | - | - | - | - |
| 1777468909 | 28.89° C | 35% | 968.1 hPa | - | - | - | - |
| 1777467109 | 28.89° C | 35% | 968.2 hPa | - | - | - | - |
| 1777465308 | 28.33° C | 35% | 968.2 hPa | - | - | - | - |
| 1777463508 | 27.78° C | 35% | 968.1 hPa | - | - | - | - |
| 1777461708 | 27.78° C | 36% | 968.1 hPa | - | - | - | - |
| 1777459908 | 27.78° C | 36% | 968.5 hPa | - | - | - | - |
| 1777458108 | 27.78° C | 36% | 968.6 hPa | - | - | - | - |
| 1777456308 | 27.22° C | 36% | 968.8 hPa | - | - | - | - |
| 1777454507 | 27.22° C | 37% | 968.9 hPa | - | - | - | - |
| 1777452707 | 27.22° C | 37% | 969 hPa | - | - | - | - |
| 1777450906 | 27.22° C | 35% | 969.1 hPa | - | - | - | - |
| 1777449105 | 27.22° C | 36% | 969 hPa | - | - | - | - |
| 1777447305 | 27.78° C | 35% | 969 hPa | - | - | - | - |
| 1777445505 | 27.78° C | 39% | 969.1 hPa | - | - | - | - |
| 1777443705 | 27.78° C | 39% | 968.9 hPa | - | - | - | - |
| 1777441905 | 28.33° C | 38% | 969.2 hPa | - | - | - | - |
| 1777440105 | 28.33° C | 38% | 969.1 hPa | - | - | - | - |
| 1777438304 | 28.89° C | 38% | 968.8 hPa | - | - | - | - |
| 1777436504 | 28.89° C | 38% | 968.6 hPa | - | - | - | - |
| 1777434703 | 28.89° C | 38% | 968.7 hPa | - | - | - | - |
| 1777432903 | 29.44° C | 38% | 968.6 hPa | - | - | - | - |
| 1777431103 | 29.44° C | 37% | 968.6 hPa | - | - | - | - |
| 1777429303 | 29.44° C | 37% | 968.7 hPa | - | - | - | - |
| 1777427502 | 30° C | 37% | 968.7 hPa | - | - | - | - |
* Rain since midnight (hover to see other rain measurements)
** Current wind speed in m/s (hover to see current wind gust speed)